Time,TemperatureF,DewpointF,PressureIn,WindDirection,WindDirectionDegrees,WindSpeedMPH,WindSpeedGustMPH,Humidity,HourlyPrecipIn,Conditions,Clouds,dailyrainin,SoftwareType,DateUTC
2013-04-22 00:02:00,37.8,27.8,30.56,SSW,192,0.0,0.0,67,0.00,,,0.00,Wunderground v.1.15,2013-04-22 04:02:00,
2013-04-22 00:04:00,37.8,28.5,30.55,SSW,192,0.0,0.0,69,0.00,,,0.00,Wunderground v.1.15,2013-04-22 04:04:00,
2013-04-22 00:06:00,37.7,28.1,30.55,SSW,192,0.0,0.0,68,0.00,,,0.00,Wunderground v.1.15,2013-04-22 04:06:00,
2013-04-22 00:10:00,37.9,26.8,30.55,SSW,196,1.0,1.0,64,0.00,,,0.00,Wunderground v.1.15,2013-04-22 04:10:00,
2013-04-22 00:16:00,38.2,28.2,30.55,SSW,196,0.0,1.0,67,0.00,,,0.00,Wunderground v.1.15,2013-04-22 04:16:00,
2013-04-22 00:22:00,38.0,28.7,30.55,SSW,196,0.0,0.0,69,0.00,,,0.00,Wunderground v.1.15,2013-04-22 04:22:00,
2013-04-22 00:24:00,37.9,28.6,30.55,SSW,196,0.0,0.0,69,0.00,,,0.00,Wunderground v.1.15,2013-04-22 04:24:00,
2013-04-22 00:30:00,37.7,28.4,30.55,SSW,196,0.0,2.0,69,0.00,,,0.00,Wunderground v.1.15,2013-04-22 04:30:00,
2013-04-22 00:36:00,37.6,28.7,30.55,SSW,197,1.0,4.0,70,0.00,,,0.00,Wunderground v.1.15,2013-04-22 04:36:00,
2013-04-22 00:42:00,37.3,29.1,30.55,SSW,198,1.0,1.0,72,0.00,,,0.00,Wunderground v.1.15,2013-04-22 04:42:00,
2013-04-22 00:48:00,37.1,28.9,30.55,SSW,198,1.0,1.0,72,0.00,,,0.00,Wunderground v.1.15,2013-04-22 04:48:00,
2013-04-22 00:54:00,37.2,29.0,30.55,SSW,198,1.0,1.0,72,0.00,,,0.00,Wunderground v.1.15,2013-04-22 04:54:00,
2013-04-22 01:00:00,37.2,29.3,30.55,SSW,198,0.0,0.0,73,0.00,,,0.00,Wunderground v.1.15,2013-04-22 05:00:00,
2013-04-22 01:06:00,37.3,29.4,30.55,SSW,198,0.0,2.0,73,0.00,,,0.00,Wunderground v.1.15,2013-04-22 05:06:00,
2013-04-22 01:12:00,37.4,29.9,30.54,SSW,198,0.0,0.0,74,0.00,,,0.00,Wunderground v.1.15,2013-04-22 05:12:00,
2013-04-22 01:18:00,37.3,29.8,30.54,SSW,198,0.0,2.0,74,0.00,,,0.00,Wunderground v.1.15,2013-04-22 05:18:00,
2013-04-22 01:24:00,37.4,29.9,30.54,SSW,198,0.0,2.0,74,0.00,,,0.00,Wunderground v.1.15,2013-04-22 05:24:00,
2013-04-22 01:30:00,37.5,29.6,30.54,SSW,198,0.0,1.0,73,0.00,,,0.00,Wunderground v.1.15,2013-04-22 05:30:00,
2013-04-22 01:36:00,37.6,29.4,30.54,SSW,198,0.0,1.0,72,0.00,,,0.00,Wunderground v.1.15,2013-04-22 05:36:00,
2013-04-22 01:42:00,37.9,29.0,30.54,SSW,197,0.0,1.0,70,0.00,,,0.00,Wunderground v.1.15,2013-04-22 05:42:00,
2013-04-22 01:48:00,39.1,27.9,30.54,SSE,165,2.0,7.0,64,0.00,,,0.00,Wunderground v.1.15,2013-04-22 05:48:00,
2013-04-22 01:54:00,39.8,28.2,30.54,SSE,167,2.0,3.0,63,0.00,,,0.00,Wunderground v.1.15,2013-04-22 05:54:00,
2013-04-22 02:00:00,40.6,27.8,30.53,SSE,153,2.0,2.0,60,0.00,,,0.00,Wunderground v.1.15,2013-04-22 06:00:00,
2013-04-22 02:06:00,41.0,27.8,30.53,South,184,4.0,6.0,59,0.00,,,0.00,Wunderground v.1.15,2013-04-22 06:06:00,
2013-04-22 02:12:00,41.2,27.5,30.53,South,185,2.0,3.0,58,0.00,,,0.00,Wunderground v.1.15,2013-04-22 06:12:00,
2013-04-22 02:18:00,41.4,27.3,30.53,South,177,2.0,3.0,57,0.00,,,0.00,Wunderground v.1.15,2013-04-22 06:18:00,
2013-04-22 02:24:00,41.6,27.1,30.53,SSW,207,3.0,9.0,56,0.00,,,0.00,Wunderground v.1.15,2013-04-22 06:24:00,
2013-04-22 02:30:00,41.6,28.3,30.53,SSW,207,2.0,4.0,59,0.00,,,0.00,Wunderground v.1.15,2013-04-22 06:30:00,
2013-04-22 02:36:00,41.5,27.4,30.53,South,188,2.0,5.0,57,0.00,,,0.00,Wunderground v.1.15,2013-04-22 06:36:00,
2013-04-22 02:42:00,41.1,27.9,30.53,South,173,3.0,3.0,59,0.00,,,0.00,Wunderground v.1.15,2013-04-22 06:42:00,
2013-04-22 02:48:00,40.9,27.7,30.52,SW,218,3.0,4.0,59,0.00,,,0.00,Wunderground v.1.15,2013-04-22 06:48:00,
2013-04-22 02:54:00,40.8,27.6,30.53,SW,219,3.0,3.0,59,0.00,,,0.00,Wunderground v.1.15,2013-04-22 06:54:00,
2013-04-22 03:00:00,40.3,28.7,30.52,SW,219,2.0,4.0,63,0.00,,,0.00,Wunderground v.1.15,2013-04-22 07:00:00,
2013-04-22 03:06:00,39.5,28.7,30.52,SW,219,2.0,4.0,65,0.00,,,0.00,Wunderground v.1.15,2013-04-22 07:06:00,
2013-04-22 03:12:00,38.6,29.3,30.52,SW,219,1.0,2.0,69,0.00,,,0.00,Wunderground v.1.15,2013-04-22 07:12:00,
2013-04-22 03:18:00,37.6,29.4,30.53,SW,219,0.0,2.0,72,0.00,,,0.00,Wunderground v.1.15,2013-04-22 07:18:00,
2013-04-22 03:24:00,36.9,29.4,30.52,SW,219,0.0,2.0,74,0.00,,,0.00,Wunderground v.1.15,2013-04-22 07:24:00,
2013-04-22 03:30:00,36.2,29.4,30.53,SW,219,1.0,1.0,76,0.00,,,0.00,Wunderground v.1.15,2013-04-22 07:30:00,
2013-04-22 03:36:00,35.7,29.2,30.52,SW,220,1.0,3.0,77,0.00,,,0.00,Wunderground v.1.15,2013-04-22 07:36:00,
2013-04-22 03:42:00,35.2,28.7,30.53,SW,221,2.0,3.0,77,0.00,,,0.00,Wunderground v.1.15,2013-04-22 07:42:00,
2013-04-22 03:48:00,35.2,28.7,30.52,SW,222,3.0,4.0,77,0.00,,,0.00,Wunderground v.1.15,2013-04-22 07:48:00,
2013-04-22 03:54:00,35.0,28.8,30.52,SSW,204,2.0,3.0,78,0.00,,,0.00,Wunderground v.1.15,2013-04-22 07:54:00,
2013-04-22 04:00:00,34.9,28.7,30.53,SW,214,2.0,4.0,78,0.00,,,0.00,Wunderground v.1.15,2013-04-22 08:00:00,
2013-04-22 04:06:00,34.9,28.7,30.53,SW,217,2.0,4.0,78,0.00,,,0.00,Wunderground v.1.15,2013-04-22 08:06:00,
2013-04-22 04:12:00,34.9,28.7,30.53,SW,225,3.0,5.0,78,0.00,,,0.00,Wunderground v.1.15,2013-04-22 08:12:00,
2013-04-22 04:18:00,35.2,28.1,30.53,SW,217,4.0,5.0,75,0.00,,,0.00,Wunderground v.1.15,2013-04-22 08:18:00,
2013-04-22 04:24:00,35.6,28.5,30.53,SW,219,3.0,4.0,75,0.00,,,0.00,Wunderground v.1.15,2013-04-22 08:24:00,
2013-04-22 04:30:00,35.8,28.6,30.53,SW,223,3.0,3.0,75,0.00,,,0.00,Wunderground v.1.15,2013-04-22 08:30:00,
2013-04-22 04:36:00,35.3,28.5,30.53,SW,229,3.0,4.0,76,0.00,,,0.00,Wunderground v.1.15,2013-04-22 08:36:00,
2013-04-22 04:42:00,35.6,28.8,30.53,SSW,211,3.0,3.0,76,0.00,,,0.00,Wunderground v.1.15,2013-04-22 08:42:00,
2013-04-22 04:48:00,35.3,28.8,30.53,SW,218,2.0,3.0,77,0.00,,,0.00,Wunderground v.1.15,2013-04-22 08:48:00,
2013-04-22 04:54:00,34.9,28.7,30.52,SW,224,3.0,4.0,78,0.00,,,0.00,Wunderground v.1.15,2013-04-22 08:54:00,
2013-04-22 05:00:00,34.5,28.7,30.52,SW,225,2.0,2.0,79,0.00,,,0.00,Wunderground v.1.15,2013-04-22 09:00:00,
2013-04-22 05:06:00,34.2,28.4,30.52,SW,225,1.0,3.0,79,0.00,,,0.00,Wunderground v.1.15,2013-04-22 09:06:00,
2013-04-22 05:12:00,33.9,28.4,30.52,SW,225,2.0,2.0,80,0.00,,,0.00,Wunderground v.1.15,2013-04-22 09:12:00,
2013-04-22 05:18:00,33.8,28.3,30.52,SW,225,1.0,2.0,80,0.00,,,0.00,Wunderground v.1.15,2013-04-22 09:18:00,
2013-04-22 05:24:00,33.5,28.3,30.52,SW,225,0.0,3.0,81,0.00,,,0.00,Wunderground v.1.15,2013-04-22 09:24:00,
2013-04-22 05:30:00,33.3,28.1,30.52,South,186,2.0,2.0,81,0.00,,,0.00,Wunderground v.1.15,2013-04-22 09:30:00,
2013-04-22 05:36:00,33.3,28.1,30.52,SSW,211,2.0,3.0,81,0.00,,,0.00,Wunderground v.1.15,2013-04-22 09:36:00,
2013-04-22 05:42:00,33.2,28.3,30.52,SSW,213,2.0,2.0,82,0.00,,,0.00,Wunderground v.1.15,2013-04-22 09:42:00,
2013-04-22 05:48:00,33.1,28.2,30.52,SW,217,2.0,5.0,82,0.00,,,0.00,Wunderground v.1.15,2013-04-22 09:48:00,
2013-04-22 05:54:00,33.0,28.1,30.53,SW,217,3.0,5.0,82,0.00,,,0.00,Wunderground v.1.15,2013-04-22 09:54:00,
2013-04-22 06:00:00,32.8,27.9,30.53,SW,217,2.0,2.0,82,0.00,,,0.00,Wunderground v.1.15,2013-04-22 10:00:00,
2013-04-22 06:06:00,32.6,27.7,30.53,SW,218,0.0,3.0,82,0.00,,,0.00,Wunderground v.1.15,2013-04-22 10:06:00,
2013-04-22 06:12:00,32.5,27.9,30.53,South,183,1.0,3.0,83,0.00,,,0.00,Wunderground v.1.15,2013-04-22 10:12:00,
2013-04-22 06:18:00,32.6,27.7,30.53,SSW,206,2.0,3.0,82,0.00,,,0.00,Wunderground v.1.15,2013-04-22 10:18:00,
2013-04-22 06:24:00,32.6,27.7,30.53,SSW,206,2.0,4.0,82,0.00,,,0.00,Wunderground v.1.15,2013-04-22 10:24:00,
2013-04-22 06:30:00,32.9,28.0,30.54,SSW,206,2.0,2.0,82,0.00,,,0.00,Wunderground v.1.15,2013-04-22 10:30:00,
2013-04-22 06:36:00,33.1,27.9,30.54,SSW,206,1.0,2.0,81,0.00,,,0.00,Wunderground v.1.15,2013-04-22 10:36:00,
2013-04-22 06:42:00,33.2,28.0,30.54,SSW,206,0.0,0.0,81,0.00,,,0.00,Wunderground v.1.15,2013-04-22 10:42:00,
2013-04-22 06:48:00,33.5,28.3,30.54,SSW,206,0.0,0.0,81,0.00,,,0.00,Wunderground v.1.15,2013-04-22 10:48:00,
2013-04-22 06:54:00,33.8,29.2,30.54,SSW,206,0.0,0.0,83,0.00,,,0.00,Wunderground v.1.15,2013-04-22 10:54:00,
2013-04-22 07:00:00,34.1,29.2,30.55,SSW,206,0.0,0.0,82,0.00,,,0.00,Wunderground v.1.15,2013-04-22 11:00:00,
2013-04-22 07:06:00,34.3,29.7,30.54,SSW,206,0.0,0.0,83,0.00,,,0.00,Wunderground v.1.15,2013-04-22 11:06:00,
2013-04-22 07:12:00,34.9,29.4,30.54,SW,223,1.0,3.0,80,0.00,,,0.00,Wunderground v.1.15,2013-04-22 11:12:00,
2013-04-22 07:18:00,35.7,29.8,30.54,SW,223,1.0,3.0,79,0.00,,,0.00,Wunderground v.1.15,2013-04-22 11:18:00,
2013-04-22 07:24:00,36.2,30.3,30.54,SW,223,0.0,2.0,79,0.00,,,0.00,Wunderground v.1.15,2013-04-22 11:24:00,
2013-04-22 07:30:00,36.6,30.7,30.54,SW,223,0.0,0.0,79,0.00,,,0.00,Wunderground v.1.15,2013-04-22 11:30:00,
2013-04-22 07:36:00,37.2,31.6,30.55,SW,223,0.0,0.0,80,0.00,,,0.00,Wunderground v.1.15,2013-04-22 11:36:00,
2013-04-22 07:42:00,37.7,32.1,30.54,SW,223,0.0,0.0,80,0.00,,,0.00,Wunderground v.1.15,2013-04-22 11:42:00,
2013-04-22 07:48:00,38.3,31.1,30.55,SW,223,0.0,1.0,75,0.00,,,0.00,Wunderground v.1.15,2013-04-22 11:48:00,
2013-04-22 07:54:00,38.9,30.6,30.55,SW,223,0.0,1.0,72,0.00,,,0.00,Wunderground v.1.15,2013-04-22 11:54:00,
2013-04-22 08:00:00,39.7,30.7,30.55,SW,223,1.0,1.0,70,0.00,,,0.00,Wunderground v.1.15,2013-04-22 12:00:00,
2013-04-22 08:06:00,40.4,29.9,30.54,SW,223,1.0,1.0,66,0.00,,,0.00,Wunderground v.1.15,2013-04-22 12:06:00,
2013-04-22 08:12:00,41.3,29.3,30.55,East,100,1.0,1.0,62,0.00,,,0.00,Wunderground v.1.15,2013-04-22 12:12:00,
2013-04-22 08:18:00,42.2,29.7,30.54,SW,215,1.0,3.0,61,0.00,,,0.00,Wunderground v.1.15,2013-04-22 12:18:00,
2013-04-22 08:24:00,42.9,29.5,30.54,SSW,198,1.0,2.0,59,0.00,,,0.00,Wunderground v.1.15,2013-04-22 12:24:00,
2013-04-22 08:30:00,43.7,29.5,30.54,SSE,161,2.0,2.0,57,0.00,,,0.00,Wunderground v.1.15,2013-04-22 12:30:00,
2013-04-22 08:36:00,44.3,28.7,30.54,South,182,5.0,12.0,54,0.00,,,0.00,Wunderground v.1.15,2013-04-22 12:36:00,
2013-04-22 08:42:00,44.8,28.7,30.55,South,169,7.0,7.0,53,0.00,,,0.00,Wunderground v.1.15,2013-04-22 12:42:00,
2013-04-22 08:48:00,44.7,27.2,30.55,SSW,194,7.0,12.0,50,0.00,,,0.00,Wunderground v.1.15,2013-04-22 12:48:00,
2013-04-22 08:54:00,45.7,28.1,30.55,ESE,116,7.0,8.0,50,0.00,,,0.00,Wunderground v.1.15,2013-04-22 12:54:00,
2013-04-22 09:00:00,46.5,27.3,30.55,ESE,104,6.0,7.0,47,0.00,,,0.00,Wunderground v.1.15,2013-04-22 13:00:00,
2013-04-22 09:06:00,46.8,27.1,30.55,South,190,6.0,9.0,46,0.00,,,0.00,Wunderground v.1.15,2013-04-22 13:06:00,
2013-04-22 09:12:00,46.3,27.2,30.55,South,171,9.0,15.0,47,0.00,,,0.00,Wunderground v.1.15,2013-04-22 13:12:00,
2013-04-22 09:18:00,46.8,26.6,30.55,SE,127,9.0,15.0,45,0.00,,,0.00,Wunderground v.1.15,2013-04-22 13:18:00,
2013-04-22 09:24:00,46.9,27.2,30.55,SSE,158,9.0,11.0,46,0.00,,,0.00,Wunderground v.1.15,2013-04-22 13:24:00,
2013-04-22 09:30:00,46.7,28.0,30.55,East,101,8.0,8.0,48,0.00,,,0.00,Wunderground v.1.15,2013-04-22 13:30:00,
2013-04-22 09:36:00,46.7,27.5,30.55,SSE,150,6.0,9.0,47,0.00,,,0.00,Wunderground v.1.15,2013-04-22 13:36:00,
2013-04-22 09:42:00,47.0,27.8,30.55,SSE,157,6.0,9.0,47,0.00,,,0.00,Wunderground v.1.15,2013-04-22 13:42:00,
2013-04-22 09:48:00,47.6,27.3,30.55,South,169,8.0,11.0,45,0.00,,,0.00,Wunderground v.1.15,2013-04-22 13:48:00,
2013-04-22 09:54:00,47.4,26.0,30.55,SE,135,10.0,17.0,43,0.00,,,0.00,Wunderground v.1.15,2013-04-22 13:54:00,
2013-04-22 10:00:00,47.1,26.8,30.55,SSE,163,8.0,8.0,45,0.00,,,0.00,Wunderground v.1.15,2013-04-22 14:00:00,
2013-04-22 10:06:00,47.4,26.0,30.55,SE,128,8.0,13.0,43,0.00,,,0.00,Wunderground v.1.15,2013-04-22 14:06:00,
2013-04-22 10:12:00,47.9,27.0,30.55,ESE,123,8.0,8.0,44,0.00,,,0.00,Wunderground v.1.15,2013-04-22 14:12:00,
2013-04-22 10:18:00,48.1,28.3,30.55,SE,146,7.0,12.0,46,0.00,,,0.00,Wunderground v.1.15,2013-04-22 14:18:00,
2013-04-22 10:24:00,48.6,27.1,30.55,SSE,159,9.0,10.0,43,0.00,,,0.00,Wunderground v.1.15,2013-04-22 14:24:00,
2013-04-22 10:30:00,48.3,26.8,30.55,ENE,63,8.0,8.0,43,0.00,,,0.00,Wunderground v.1.15,2013-04-22 14:30:00,
2013-04-22 10:36:00,48.2,26.2,30.54,SSW,205,6.0,8.0,42,0.00,,,0.00,Wunderground v.1.15,2013-04-22 14:36:00,
2013-04-22 10:42:00,49.7,28.6,30.55,SE,133,7.0,7.0,44,0.00,,,0.00,Wunderground v.1.15,2013-04-22 14:42:00,
2013-04-22 10:48:00,49.9,25.9,30.54,SSE,154,9.0,13.0,39,0.00,,,0.00,Wunderground v.1.15,2013-04-22 14:48:00,
2013-04-22 10:54:00,49.7,27.5,30.54,ESE,104,9.0,11.0,42,0.00,,,0.00,Wunderground v.1.15,2013-04-22 14:54:00,
2013-04-22 11:00:00,49.0,28.0,30.54,SE,144,7.0,10.0,44,0.00,,,0.00,Wunderground v.1.15,2013-04-22 15:00:00,
2013-04-22 11:06:00,49.7,25.7,30.53,ESE,115,8.0,14.0,39,0.00,,,0.00,Wunderground v.1.15,2013-04-22 15:06:00,
2013-04-22 11:12:00,48.8,25.5,30.53,East,84,9.0,9.0,40,0.00,,,0.00,Wunderground v.1.15,2013-04-22 15:12:00,
2013-04-22 11:18:00,49.0,27.5,30.53,ESE,121,7.0,11.0,43,0.00,,,0.00,Wunderground v.1.15,2013-04-22 15:18:00,
2013-04-22 11:24:00,50.6,27.7,30.52,South,189,9.0,13.0,41,0.00,,,0.00,Wunderground v.1.15,2013-04-22 15:24:00,
2013-04-22 11:30:00,50.3,26.3,30.52,SSW,194,9.0,9.0,39,0.00,,,0.00,Wunderground v.1.15,2013-04-22 15:30:00,
2013-04-22 11:36:00,50.8,27.9,30.52,SSE,154,9.0,9.0,41,0.00,,,0.00,Wunderground v.1.15,2013-04-22 15:36:00,
2013-04-22 11:42:00,49.4,26.7,30.51,ENE,78,8.0,8.0,41,0.00,,,0.00,Wunderground v.1.15,2013-04-22 15:42:00,
2013-04-22 11:48:00,49.7,26.3,30.51,ESE,114,8.0,11.0,40,0.00,,,0.00,Wunderground v.1.15,2013-04-22 15:48:00,
2013-04-22 11:54:00,49.3,28.3,30.51,ENE,73,9.0,10.0,44,0.00,,,0.00,Wunderground v.1.15,2013-04-22 15:54:00,
2013-04-22 12:00:00,49.8,27.0,30.50,SSE,159,7.0,13.0,41,0.00,,,0.00,Wunderground v.1.15,2013-04-22 16:00:00,
2013-04-22 12:06:00,51.1,27.6,30.50,SSE,160,7.0,13.0,40,0.00,,,0.00,Wunderground v.1.15,2013-04-22 16:06:00,
2013-04-22 12:12:00,51.7,25.6,30.50,SE,140,8.0,9.0,36,0.00,,,0.00,Wunderground v.1.15,2013-04-22 16:12:00,
2013-04-22 12:18:00,52.6,28.3,30.49,SSE,167,8.0,9.0,39,0.00,,,0.00,Wunderground v.1.15,2013-04-22 16:18:00,
2013-04-22 12:24:00,52.7,28.4,30.50,SE,146,8.0,9.0,39,0.00,,,0.00,Wunderground v.1.15,2013-04-22 16:24:00,
2013-04-22 12:30:00,52.9,28.0,30.49,SE,145,7.0,9.0,38,0.00,,,0.00,Wunderground v.1.15,2013-04-22 16:30:00,
2013-04-22 12:36:00,53.0,31.1,30.49,South,188,7.0,11.0,43,0.00,,,0.00,Wunderground v.1.15,2013-04-22 16:36:00,
2013-04-22 12:42:00,53.2,29.5,30.49,South,186,10.0,13.0,40,0.00,,,0.00,Wunderground v.1.15,2013-04-22 16:42:00,
2013-04-22 12:48:00,53.0,30.5,30.48,SSE,163,11.0,13.0,42,0.00,,,0.00,Wunderground v.1.15,2013-04-22 16:48:00,
2013-04-22 12:54:00,52.7,28.4,30.48,SSW,195,8.0,11.0,39,0.00,,,0.00,Wunderground v.1.15,2013-04-22 16:54:00,
2013-04-22 13:00:00,53.2,29.5,30.48,SSE,159,7.0,8.0,40,0.00,,,0.00,Wunderground v.1.15,2013-04-22 17:00:00,
2013-04-22 13:06:00,53.7,29.9,30.47,South,182,10.0,10.0,40,0.00,,,0.00,Wunderground v.1.15,2013-04-22 17:06:00,
2013-04-22 13:12:00,53.8,28.8,30.47,ESE,123,10.0,10.0,38,0.00,,,0.00,Wunderground v.1.15,2013-04-22 17:12:00,
2013-04-22 13:18:00,53.9,29.5,30.46,South,186,9.0,12.0,39,0.00,,,0.00,Wunderground v.1.15,2013-04-22 17:18:00,
2013-04-22 13:24:00,54.3,31.7,30.46,SSE,163,9.0,17.0,42,0.00,,,0.00,Wunderground v.1.15,2013-04-22 17:24:00,
2013-04-22 13:30:00,55.1,30.6,30.46,South,171,9.0,15.0,39,0.00,,,0.00,Wunderground v.1.15,2013-04-22 17:30:00,
2013-04-22 13:36:00,54.1,26.3,30.46,ESE,109,10.0,15.0,34,0.00,,,0.00,Wunderground v.1.15,2013-04-22 17:36:00,
2013-04-22 13:42:00,52.8,27.9,30.45,East,97,6.0,7.0,38,0.00,,,0.00,Wunderground v.1.15,2013-04-22 17:42:00,
2013-04-22 13:48:00,54.2,27.8,30.45,SE,132,4.0,8.0,36,0.00,,,0.00,Wunderground v.1.15,2013-04-22 17:48:00,
2013-04-22 13:54:00,54.7,30.2,30.45,SSE,160,7.0,7.0,39,0.00,,,0.00,Wunderground v.1.15,2013-04-22 17:54:00,
2013-04-22 14:00:00,55.8,29.2,30.44,SSE,147,5.0,6.0,36,0.00,,,0.00,Wunderground v.1.15,2013-04-22 18:00:00,
2013-04-22 14:06:00,56.8,30.8,30.44,SSE,167,7.0,12.0,37,0.00,,,0.00,Wunderground v.1.15,2013-04-22 18:06:00,
2013-04-22 14:12:00,56.8,32.1,30.44,South,173,9.0,11.0,39,0.00,,,0.00,Wunderground v.1.15,2013-04-22 18:12:00,
2013-04-22 14:18:00,57.0,29.6,30.44,SE,132,9.0,11.0,35,0.00,,,0.00,Wunderground v.1.15,2013-04-22 18:18:00,
2013-04-22 14:24:00,55.0,27.1,30.43,SE,128,7.0,8.0,34,0.00,,,0.00,Wunderground v.1.15,2013-04-22 18:24:00,
2013-04-22 14:30:00,56.0,28.0,30.43,East,90,4.0,4.0,34,0.00,,,0.00,Wunderground v.1.15,2013-04-22 18:30:00,
2013-04-22 14:36:00,56.4,26.1,30.42,East,96,5.0,11.0,31,0.00,,,0.00,Wunderground v.1.15,2013-04-22 18:36:00,
2013-04-22 14:42:00,56.3,29.7,30.42,South,185,8.0,8.0,36,0.00,,,0.00,Wunderground v.1.15,2013-04-22 18:42:00,
2013-04-22 14:48:00,56.9,30.2,30.42,SSE,161,10.0,11.0,36,0.00,,,0.00,Wunderground v.1.15,2013-04-22 18:48:00,
2013-04-22 14:54:00,57.1,28.2,30.42,SE,128,8.0,14.0,33,0.00,,,0.00,Wunderground v.1.15,2013-04-22 18:54:00,
2013-04-22 15:00:00,57.6,28.7,30.42,South,184,7.0,7.0,33,0.00,,,0.00,Wunderground v.1.15,2013-04-22 19:00:00,
2013-04-22 15:06:00,56.8,28.0,30.41,SSW,196,5.0,8.0,33,0.00,,,0.00,Wunderground v.1.15,2013-04-22 19:06:00,
2013-04-22 15:12:00,58.1,28.4,30.41,South,169,7.0,9.0,32,0.00,,,0.00,Wunderground v.1.15,2013-04-22 19:12:00,
2013-04-22 15:18:00,56.3,28.3,30.41,East,94,9.0,9.0,34,0.00,,,0.00,Wunderground v.1.15,2013-04-22 19:18:00,
2013-04-22 15:24:00,57.5,29.3,30.41,South,181,9.0,13.0,34,0.00,,,0.00,Wunderground v.1.15,2013-04-22 19:24:00,
2013-04-22 15:30:00,56.5,25.4,30.40,ENE,76,9.0,9.0,30,0.00,,,0.00,Wunderground v.1.15,2013-04-22 19:30:00,
2013-04-22 15:36:00,57.2,26.8,30.40,ESE,105,9.0,15.0,31,0.00,,,0.00,Wunderground v.1.15,2013-04-22 19:36:00,
2013-04-22 15:42:00,56.8,28.0,30.40,ESE,121,10.0,10.0,33,0.00,,,0.00,Wunderground v.1.15,2013-04-22 19:42:00,
2013-04-22 15:48:00,58.3,28.5,30.40,SSE,155,6.0,14.0,32,0.00,,,0.00,Wunderground v.1.15,2013-04-22 19:48:00,
2013-04-22 15:54:00,58.1,28.4,30.40,South,175,6.0,8.0,32,0.00,,,0.00,Wunderground v.1.15,2013-04-22 19:54:00,
2013-04-22 16:00:00,56.5,27.7,30.39,South,170,4.0,5.0,33,0.00,,,0.00,Wunderground v.1.15,2013-04-22 20:00:00,
2013-04-22 16:06:00,57.6,28.7,30.39,SSE,160,5.0,14.0,33,0.00,,,0.00,Wunderground v.1.15,2013-04-22 20:06:00,
2013-04-22 16:12:00,57.4,25.4,30.39,East,85,9.0,9.0,29,0.00,,,0.00,Wunderground v.1.15,2013-04-22 20:12:00,
2013-04-22 16:18:00,55.5,29.6,30.39,ENE,75,7.0,19.0,37,0.00,,,0.00,Wunderground v.1.15,2013-04-22 20:18:00,
2013-04-22 16:24:00,56.3,29.0,30.39,SSE,158,6.0,12.0,35,0.00,,,0.00,Wunderground v.1.15,2013-04-22 20:24:00,
2013-04-22 16:30:00,56.8,28.7,30.38,ESE,123,5.0,7.0,34,0.00,,,0.00,Wunderground v.1.15,2013-04-22 20:30:00,
2013-04-22 16:36:00,57.4,27.0,30.38,SE,124,7.0,11.0,31,0.00,,,0.00,Wunderground v.1.15,2013-04-22 20:36:00,
2013-04-22 16:42:00,57.7,28.0,30.38,SE,137,9.0,13.0,32,0.00,,,0.00,Wunderground v.1.15,2013-04-22 20:42:00,
2013-04-22 16:48:00,57.7,28.8,30.38,SSE,153,8.0,13.0,33,0.00,,,0.00,Wunderground v.1.15,2013-04-22 20:48:00,
2013-04-22 16:54:00,58.2,28.5,30.38,SSE,154,8.0,12.0,32,0.00,,,0.00,Wunderground v.1.15,2013-04-22 20:54:00,
2013-04-22 17:00:00,58.0,29.8,30.38,South,180,8.0,8.0,34,0.00,,,0.00,Wunderground v.1.15,2013-04-22 21:00:00,
2013-04-22 17:06:00,57.7,28.0,30.37,South,184,6.0,8.0,32,0.00,,,0.00,Wunderground v.1.15,2013-04-22 21:06:00,
2013-04-22 17:12:00,58.2,27.7,30.37,South,175,5.0,9.0,31,0.00,,,0.00,Wunderground v.1.15,2013-04-22 21:12:00,
2013-04-22 17:18:00,57.9,27.4,30.37,ESE,121,7.0,11.0,31,0.00,,,0.00,Wunderground v.1.15,2013-04-22 21:18:00,
2013-04-22 17:24:00,57.9,27.4,30.37,SE,140,7.0,12.0,31,0.00,,,0.00,Wunderground v.1.15,2013-04-22 21:24:00,
2013-04-22 17:30:00,57.4,27.7,30.37,SSE,160,8.0,8.0,32,0.00,,,0.00,Wunderground v.1.15,2013-04-22 21:30:00,
2013-04-22 17:36:00,57.5,27.8,30.36,SW,234,8.0,8.0,32,0.00,,,0.00,Wunderground v.1.15,2013-04-22 21:36:00,
2013-04-22 17:42:00,56.9,28.8,30.36,ESE,121,7.0,7.0,34,0.00,,,0.00,Wunderground v.1.15,2013-04-22 21:42:00,
2013-04-22 17:48:00,57.2,27.6,30.36,SSE,157,7.0,15.0,32,0.00,,,0.00,Wunderground v.1.15,2013-04-22 21:48:00,
2013-04-22 17:54:00,56.8,26.5,30.36,South,180,9.0,10.0,31,0.00,,,0.00,Wunderground v.1.15,2013-04-22 21:54:00,
2013-04-22 18:00:00,56.5,27.0,30.36,SE,125,9.0,11.0,32,0.00,,,0.00,Wunderground v.1.15,2013-04-22 22:00:00,
2013-04-22 18:06:00,55.9,25.7,30.36,ESE,112,8.0,11.0,31,0.00,,,0.00,Wunderground v.1.15,2013-04-22 22:06:00,
2013-04-22 18:12:00,55.9,26.4,30.36,SE,126,8.0,14.0,32,0.00,,,0.00,Wunderground v.1.15,2013-04-22 22:12:00,
2013-04-22 18:18:00,55.8,26.3,30.36,ESE,117,7.0,14.0,32,0.00,,,0.00,Wunderground v.1.15,2013-04-22 22:18:00,
2013-04-22 18:24:00,55.9,27.2,30.36,SE,136,7.0,11.0,33,0.00,,,0.00,Wunderground v.1.15,2013-04-22 22:24:00,
2013-04-22 18:30:00,55.8,27.8,30.36,SSE,159,9.0,9.0,34,0.00,,,0.00,Wunderground v.1.15,2013-04-22 22:30:00,
2013-04-22 18:36:00,55.4,28.2,30.36,SE,138,9.0,12.0,35,0.00,,,0.00,Wunderground v.1.15,2013-04-22 22:36:00,
2013-04-22 18:42:00,54.9,27.7,30.36,ESE,112,8.0,10.0,35,0.00,,,0.00,Wunderground v.1.15,2013-04-22 22:42:00,
2013-04-22 18:48:00,55.0,29.2,30.36,SSE,148,7.0,10.0,37,0.00,,,0.00,Wunderground v.1.15,2013-04-22 22:48:00,
2013-04-22 18:54:00,54.8,28.3,30.36,SSE,155,8.0,11.0,36,0.00,,,0.00,Wunderground v.1.15,2013-04-22 22:54:00,
2013-04-22 19:00:00,54.5,29.4,30.36,South,175,6.0,6.0,38,0.00,,,0.00,Wunderground v.1.15,2013-04-22 23:00:00,
2013-04-22 19:06:00,54.3,29.8,30.36,South,169,6.0,9.0,39,0.00,,,0.00,Wunderground v.1.15,2013-04-22 23:06:00,
2013-04-22 19:12:00,54.1,29.0,30.36,SE,139,5.0,8.0,38,0.00,,,0.00,Wunderground v.1.15,2013-04-22 23:12:00,
2013-04-22 19:18:00,53.8,29.4,30.36,ESE,114,6.0,9.0,39,0.00,,,0.00,Wunderground v.1.15,2013-04-22 23:18:00,
2013-04-22 19:24:00,53.6,29.8,30.36,SE,139,7.0,7.0,40,0.00,,,0.00,Wunderground v.1.15,2013-04-22 23:24:00,
2013-04-22 19:30:00,53.1,29.4,30.36,SE,144,5.0,13.0,40,0.00,,,0.00,Wunderground v.1.15,2013-04-22 23:30:00,
2013-04-22 19:36:00,52.6,29.5,30.36,SSE,161,8.0,13.0,41,0.00,,,0.00,Wunderground v.1.15,2013-04-22 23:36:00,
2013-04-22 19:42:00,52.4,29.4,30.36,SE,135,6.0,8.0,41,0.00,,,0.00,Wunderground v.1.15,2013-04-22 23:42:00,
2013-04-22 19:48:00,52.2,29.8,30.36,SSE,161,7.0,12.0,42,0.00,,,0.00,Wunderground v.1.15,2013-04-22 23:48:00,
2013-04-22 19:54:00,51.8,30.0,30.36,SE,139,8.0,8.0,43,0.00,,,0.00,Wunderground v.1.15,2013-04-22 23:54:00,
2013-04-22 20:00:00,51.5,29.7,30.36,SSE,161,5.0,8.0,43,0.00,,,0.00,Wunderground v.1.15,2013-04-23 00:00:00,
2013-04-22 20:06:00,51.3,29.5,30.36,SE,144,7.0,8.0,43,0.00,,,0.00,Wunderground v.1.15,2013-04-23 00:06:00,
2013-04-22 20:12:00,51.1,29.9,30.36,SSE,161,7.0,7.0,44,0.00,,,0.00,Wunderground v.1.15,2013-04-23 00:12:00,
2013-04-22 20:18:00,50.9,30.3,30.36,SSW,193,6.0,10.0,45,0.00,,,0.00,Wunderground v.1.15,2013-04-23 00:18:00,
2013-04-22 20:24:00,50.6,30.6,30.36,SSE,151,6.0,10.0,46,0.00,,,0.00,Wunderground v.1.15,2013-04-23 00:24:00,
2013-04-22 20:30:00,50.4,30.4,30.37,SE,130,6.0,7.0,46,0.00,,,0.00,Wunderground v.1.15,2013-04-23 00:30:00,
2013-04-22 20:36:00,50.5,30.5,30.37,SE,141,8.0,13.0,46,0.00,,,0.00,Wunderground v.1.15,2013-04-23 00:36:00,
2013-04-22 20:42:00,50.4,30.4,30.37,SSE,148,6.0,8.0,46,0.00,,,0.00,Wunderground v.1.15,2013-04-23 00:42:00,
2013-04-22 20:48:00,50.1,30.1,30.37,ESE,116,5.0,9.0,46,0.00,,,0.00,Wunderground v.1.15,2013-04-23 00:48:00,
2013-04-22 20:54:00,49.9,30.5,30.38,SSE,164,4.0,9.0,47,0.00,,,0.00,Wunderground v.1.15,2013-04-23 00:54:00,
2013-04-22 21:00:00,49.9,31.0,30.38,SSE,163,6.0,10.0,48,0.00,,,0.00,Wunderground v.1.15,2013-04-23 01:00:00,
2013-04-22 21:06:00,49.9,30.5,30.38,South,175,7.0,10.0,47,0.00,,,0.00,Wunderground v.1.15,2013-04-23 01:06:00,
2013-04-22 21:12:00,49.8,30.4,30.38,ESE,120,5.0,8.0,47,0.00,,,0.00,Wunderground v.1.15,2013-04-23 01:12:00,
2013-04-22 21:18:00,49.6,30.7,30.38,South,173,5.0,8.0,48,0.00,,,0.00,Wunderground v.1.15,2013-04-23 01:18:00,
2013-04-22 21:24:00,49.4,31.0,30.38,SE,126,4.0,5.0,49,0.00,,,0.00,Wunderground v.1.15,2013-04-23 01:24:00,
2013-04-22 21:30:00,49.2,30.8,30.38,ESE,115,4.0,4.0,49,0.00,,,0.00,Wunderground v.1.15,2013-04-23 01:30:00,
2013-04-22 21:36:00,49.1,31.2,30.38,SSE,151,4.0,6.0,50,0.00,,,0.00,Wunderground v.1.15,2013-04-23 01:36:00,
2013-04-22 21:42:00,48.9,31.5,30.38,SE,126,5.0,6.0,51,0.00,,,0.00,Wunderground v.1.15,2013-04-23 01:42:00,
2013-04-22 21:48:00,48.7,31.4,30.38,South,188,5.0,6.0,51,0.00,,,0.00,Wunderground v.1.15,2013-04-23 01:48:00,
2013-04-22 21:54:00,48.7,31.4,30.38,SE,124,4.0,5.0,51,0.00,,,0.00,Wunderground v.1.15,2013-04-23 01:54:00,
2013-04-22 22:00:00,48.4,31.6,30.39,SE,132,2.0,3.0,52,0.00,,,0.00,Wunderground v.1.15,2013-04-23 02:00:00,
2013-04-22 22:06:00,48.0,31.7,30.39,SSE,161,2.0,3.0,53,0.00,,,0.00,Wunderground v.1.15,2013-04-23 02:06:00,
2013-04-22 22:12:00,47.7,31.4,30.39,WSW,258,1.0,4.0,53,0.00,,,0.00,Wunderground v.1.15,2013-04-23 02:12:00,
2013-04-22 22:18:00,47.4,31.6,30.39,South,183,2.0,4.0,54,0.00,,,0.00,Wunderground v.1.15,2013-04-23 02:18:00,
2013-04-22 22:24:00,47.2,31.8,30.39,South,172,3.0,6.0,55,0.00,,,0.00,Wunderground v.1.15,2013-04-23 02:24:00,
2013-04-22 22:30:00,47.7,32.3,30.39,SSE,164,6.0,6.0,55,0.00,,,0.00,Wunderground v.1.15,2013-04-23 02:30:00,
2013-04-22 22:36:00,47.8,32.4,30.39,ESE,122,8.0,8.0,55,0.00,,,0.00,Wunderground v.1.15,2013-04-23 02:36:00,
2013-04-22 22:42:00,47.9,32.5,30.39,SSE,161,8.0,8.0,55,0.00,,,0.00,Wunderground v.1.15,2013-04-23 02:42:00,
2013-04-22 22:48:00,47.8,32.9,30.39,ESE,116,5.0,8.0,56,0.00,,,0.00,Wunderground v.1.15,2013-04-23 02:48:00,
2013-04-22 22:54:00,47.6,32.7,30.39,SE,130,6.0,10.0,56,0.00,,,0.00,Wunderground v.1.15,2013-04-23 02:54:00,
2013-04-22 23:00:00,47.5,33.0,30.39,ESE,123,6.0,6.0,57,0.00,,,0.00,Wunderground v.1.15,2013-04-23 03:00:00,
2013-04-22 23:06:00,47.4,33.4,30.39,SE,134,7.0,13.0,58,0.00,,,0.00,Wunderground v.1.15,2013-04-23 03:06:00,
2013-04-22 23:12:00,47.3,33.3,30.39,ESE,123,8.0,11.0,58,0.00,,,0.00,Wunderground v.1.15,2013-04-23 03:12:00,
2013-04-22 23:18:00,47.2,33.2,30.39,South,176,8.0,11.0,58,0.00,,,0.00,Wunderground v.1.15,2013-04-23 03:18:00,
2013-04-22 23:24:00,47.0,33.0,30.38,ESE,110,8.0,13.0,58,0.00,,,0.00,Wunderground v.1.15,2013-04-23 03:24:00,
2013-04-22 23:30:00,46.9,32.9,30.38,SSW,192,8.0,8.0,58,0.00,,,0.00,Wunderground v.1.15,2013-04-23 03:30:00,
2013-04-22 23:36:00,46.7,32.7,30.38,SE,138,8.0,11.0,58,0.00,,,0.00,Wunderground v.1.15,2013-04-23 03:36:00,
2013-04-22 23:42:00,46.6,32.6,30.38,SSE,156,9.0,11.0,58,0.00,,,0.00,Wunderground v.1.15,2013-04-23 03:42:00,
2013-04-22 23:48:00,46.5,32.9,30.38,East,95,8.0,11.0,59,0.00,,,0.00,Wunderground v.1.15,2013-04-23 03:48:00,
2013-04-22 23:54:00,46.3,32.7,30.38,SE,134,7.0,9.0,59,0.00,,,0.00,Wunderground v.1.15,2013-04-23 03:54:00,